Orbital Elements at Epoch 2459200.5 (2020-Dec-17.0) TDB
Reference: JPL 15 (heliocentric ecliptic J2000)
Element | Value | Uncertainty (1-sigma) | Units |
e | .1442709729098156 | 4.4907e-08 | |
a | 2.716206622933759 | 1.8186e-08 | au |
q | 2.324336850819021 | 1.227e-07 | au |
i | 5.287505979963792 | 5.1332e-06 | deg |
node | 157.9829645212693 | 5.1339e-05 | deg |
peri | 138.3040259054716 | 5.5019e-05 | deg |
M | 169.6473402129525 | 1.991e-05 | deg |
tp | 2458429.974196799498 (2018-Nov-07.47419680) | 8.7475e-05 | TDB |
period | 1635.093652538162 4.48 | 1.6421e-05 4.496e-08 | d yr |
n | .220170874886078 | 2.2111e-09 | deg/d |
Q | 3.108076395048497 | 2.0809e-08 | au |
|
| | Orbit Determination Parameters
Additional Information
|